World > North America > United States > Massachusetts > Halland  

Halland, MA Hourly Weather Updates

Feedback E-mail the Weather

Quick Clicks

Halland, MA Weather Maps

°F °C°F °C
Halland Weather Map
UTC Time: 6/20/2024, 05:12
Your Time:

Halland, MA Regional Weather

Expires:202406200600;;331849
ASUS41 KOKX 200510
RWROKX

Regional Weather Roundup
National Weather Service New York NY
100 AM EDT THU JUN 20 2024

Note: "FAIR" indicates few or no clouds below 12,000 feet with no
significant weather and/or obstructions to visibility.


CTZ002-004>006-009-010-012-RIZ004-006-007-MAZ004-011-015-200600-
Southern New England

 In CT
  
CITY           SKY/WX    TMP DP  RH WIND       PRES   REMARKS
Bradley Intl   PTCLDY    76  62  62 S7        30.28F                  
Hartford       PTCLDY    73  61  65 S7        30.29F                  
Danbury        PTCLDY    69  59  70 CALM      30.33F                  
Wtrbury/Oxford PTCLDY    69  61  75 CALM      30.34F                  
Norwalk Harbor   N/A    N/A N/A N/A S5          N/A                   
Bridgeport     PTCLDY    72  66  81 SW7       30.31F                  
Meriden        PTCLDY    68  60  75 CALM      30.31S                  
New Haven      PTCLDY    73  67  81 S3        30.31F                  
Chester        PTCLDY    70  66  88 VRB6      30.32F                  
Groton         PTCLDY    68  66  93 SW7       30.31F                  
Willimantic    PTCLDY    71  60  68 S5        30.30F                  

 In RI
  
CITY           SKY/WX    TMP DP  RH WIND       PRES   REMARKS
Providence     PTCLDY    71  61  70 SW7       30.30S                  
Block Island   PTCLDY    67  64  90 SW13      30.33F                  
Westerly       PTCLDY    70  64  81 W7        30.32S                  
 
In MA
  
CITY           SKY/WX    TMP DP  RH WIND       PRES   REMARKS
Boston         CLOUDY    78  66  66 SW12      30.24F                  
Worcester      PTCLDY    73  66  78 W13       30.30F                  
Westfield      PTCLDY    71  69  93 S5        30.27F                  
Provincetown   PTCLDY    66  64  93 S14       30.27S                  
Nantucket      PTCLDY    67  65  93 W13       30.32S                  
$$


SKY/WX - Weather  TMP - Temperature  DP - Dew Point  RH - Humidity
WIND - Wind Direction/Speed PRES - Barometric Pressure VSB - Visibility
WCI - Wind Chill Index E13G22 Wind - East Wind 13 mph/Gusts of 22 mph

Trending Headlines

Trending Entertainment Headlines

Halland Radar Loop

Use the map search tool if you want to place a location marker on the radar map...

Halland Quick Facts

National Two Day Weather Forecast


E-mail the Halland Weather Forecast

Voice your opinion or tell us about page issues...